Location: Unspecified
(59.2933°N, 0.0000°E)
Time: 03:45:28
(UTC+00:00)

Explorer 7 - Visible Passes

Search period start: 04 April 2026 00:00
Search period end: 14 April 2026 00:00
Orbit: 429 x 539 km, 50.2° (Epoch: 29 March)

Date Brightness Start Highest point End Pass type
(mag) Time Alt. Az. Time Alt. Az. Time Alt. Az.
7 Apr 8.6 20:36:17 10° S 20:37:45 13° SSE 20:37:45 13° SSE visible
8 Apr 8.6 20:09:13 10° S 20:11:13 13° SSE 20:12:21 12° SE visible
8 Apr 8.7 21:45:35 10° SW 21:46:38 15° SSW 21:46:38 15° SSW visible
9 Apr 8.2 21:18:24 10° SW 21:20:59 21° S 21:20:59 21° S visible
10 Apr 8.0 20:51:12 10° SW 20:54:17 21° S 20:55:08 20° SSE visible
10 Apr 9.1 22:28:54 10° WSW 22:29:24 12° SW 22:29:24 12° SW visible
11 Apr 8.2 20:23:59 10° SW 20:27:04 21° S 20:29:08 15° SE visible
11 Apr 8.5 22:01:38 10° WSW 22:03:24 18° SW 22:03:24 18° SW visible
12 Apr 8.2 19:56:43 10° SW 19:59:48 21° S 20:02:50 10° ESE visible
12 Apr 8.2 21:34:20 10° WSW 21:37:16 21° SSW 21:37:16 21° SSW visible
13 Apr 8.2 21:07:01 10° WSW 21:10:04 21° S 21:11:05 19° SSE visible
